contact:dominique.lefevre@mio.osupytheas.fr, maurice.libes@osupytheas.fr, didier.mallarino@osupytheas.fr
Project:EMSO http://www.emso-fr.org/EMSO-France
Depth: 2436.0 m
Title:EMSO Ligure Ouest : Data MII capteur CSTAR
DateTime,Latitude,Longitude,Instrument_Serial,Reference_Counts,Signal_Counts,Corrected_Signal_raw_counts,Calculated_Beam_c_inverse_meters,Internal_thermistor_counts
DateTime,Latitude,Longitude,Instrument_Serial,Reference_Counts,Signal_Counts,Corrected_Signal_raw_counts,Calculated_Beam_c_inverse_meters,Internal_thermistor_counts
2020-03-06T00:00:06,42.805,6.029,CST-1368DR,6669,9349,15220,0.103,551
2020-03-06T00:03:08,42.805,6.029,CST-1368DR,6669,9349,15221,0.102,550
2020-03-06T00:06:09,42.805,6.029,CST-1368DR,6669,9349,15220,0.103,551
2020-03-06T00:09:11,42.805,6.029,CST-1368DR,6669,9347,15217,0.104,551
2020-03-06T00:12:13,42.805,6.029,CST-1368DR,6669,9343,15210,0.105,551
2020-03-06T00:15:14,42.805,6.029,CST-1368DR,6669,9349,15220,0.103,551
2020-03-06T00:18:16,42.805,6.029,CST-1368DR,6669,9349,15221,0.102,551
2020-03-06T00:21:18,42.805,6.029,CST-1368DR,6669,9349,15220,0.103,551
2020-03-06T00:24:19,42.805,6.029,CST-1368DR,6669,9347,15217,0.104,551
2020-03-06T00:27:21,42.805,6.029,CST-1368DR,6669,9349,15220,0.103,551
2020-03-06T00:30:23,42.805,6.029,CST-1368DR,6669,9349,15221,0.102,551
2020-03-06T00:33:24,42.805,6.029,CST-1368DR,6669,9347,15217,0.104,551
2020-03-06T00:36:26,42.805,6.029,CST-1368DR,6669,9348,15219,0.103,551
2020-03-06T00:39:27,42.805,6.029,CST-1368DR,6669,9348,15218,0.103,551
2020-03-06T00:42:29,42.805,6.029,CST-1368DR,6669,9349,15220,0.103,551
2020-03-06T00:45:31,42.805,6.029,CST-1368DR,6669,9347,15217,0.104,550
2020-03-06T00:48:33,42.805,6.029,CST-1368DR,6669,9348,15218,0.103,551
2020-03-06T00:51:34,42.805,6.029,CST-1368DR,6669,9349,15220,0.103,550
2020-03-06T00:54:36,42.805,6.029,CST-1368DR,6669,9348,15219,0.103,551
2020-03-06T00:57:37,42.805,6.029,CST-1368DR,6669,9348,15219,0.103,551
2020-03-06T01:00:39,42.805,6.029,CST-1368DR,6669,9349,15220,0.103,550
2020-03-06T01:03:41,42.805,6.029,CST-1368DR,6669,9347,15217,0.104,551
2020-03-06T01:06:43,42.805,6.029,CST-1368DR,6669,9348,15218,0.103,551
2020-03-06T01:09:44,42.805,6.029,CST-1368DR,6668,9348,15220,0.103,551
2020-03-06T01:12:46,42.805,6.029,CST-1368DR,6668,9349,15222,0.102,551
2020-03-06T01:15:48,42.805,6.029,CST-1368DR,6668,9348,15220,0.103,551
2020-03-06T01:18:49,42.805,6.029,CST-1368DR,6668,9348,15220,0.103,550
2020-03-06T01:21:51,42.805,6.029,CST-1368DR,6668,9343,15212,0.105,551
2020-03-06T01:24:53,42.805,6.029,CST-1368DR,6668,9347,15220,0.103,551
2020-03-06T01:27:54,42.805,6.029,CST-1368DR,6668,9348,15221,0.102,551
2020-03-06T01:30:56,42.805,6.029,CST-1368DR,6668,9349,15222,0.102,551
2020-03-06T01:33:58,42.805,6.029,CST-1368DR,6668,9347,15219,0.103,551
2020-03-06T01:36:59,42.805,6.029,CST-1368DR,6668,9349,15222,0.102,551
2020-03-06T01:40:01,42.805,6.029,CST-1368DR,6668,9349,15222,0.102,551
2020-03-06T01:43:03,42.805,6.029,CST-1368DR,6668,9346,15217,0.104,550
2020-03-06T01:46:04,42.805,6.029,CST-1368DR,6668,9350,15223,0.102,551
2020-03-06T01:49:06,42.805,6.029,CST-1368DR,6668,9348,15220,0.103,551
2020-03-06T01:52:07,42.805,6.029,CST-1368DR,6667,9346,15219,0.103,551
2020-03-06T01:55:09,42.805,6.029,CST-1368DR,6667,9346,15220,0.103,551
2020-03-06T01:58:11,42.805,6.029,CST-1368DR,6667,9342,15213,0.105,551
2020-03-06T02:01:13,42.805,6.029,CST-1368DR,6667,9345,15219,0.103,550
2020-03-06T02:04:14,42.805,6.029,CST-1368DR,6666,9345,15219,0.103,551
2020-03-06T02:07:16,42.805,6.029,CST-1368DR,6666,9335,15204,0.107,551
2020-03-06T02:10:18,42.805,6.029,CST-1368DR,6667,9346,15219,0.103,551
2020-03-06T02:13:19,42.805,6.029,CST-1368DR,6667,9343,15215,0.104,551
2020-03-06T02:16:21,42.805,6.029,CST-1368DR,6667,9345,15219,0.103,551
2020-03-06T02:19:23,42.805,6.029,CST-1368DR,6667,9347,15222,0.102,551
2020-03-06T02:22:24,42.805,6.029,CST-1368DR,6667,9346,15220,0.103,550
2020-03-06T02:25:26,42.805,6.029,CST-1368DR,6667,9346,15220,0.103,550
2020-03-06T02:28:28,42.805,6.029,CST-1368DR,6667,9347,15221,0.102,551
2020-03-06T02:31:29,42.805,6.029,CST-1368DR,6667,9347,15221,0.102,550
2020-03-06T02:34:31,42.805,6.029,CST-1368DR,6667,9346,15220,0.103,551
2020-03-06T02:37:32,42.805,6.029,CST-1368DR,6667,9347,15221,0.102,551
2020-03-06T02:40:34,42.805,6.029,CST-1368DR,6667,9346,15220,0.103,550
2020-03-06T02:43:36,42.805,6.029,CST-1368DR,6668,9346,15217,0.104,551
2020-03-06T02:46:37,42.805,6.029,CST-1368DR,6668,9346,15217,0.104,551
2020-03-06T02:49:39,42.805,6.029,CST-1368DR,6668,9346,15217,0.104,551
2020-03-06T02:52:41,42.805,6.029,CST-1368DR,6668,9345,15216,0.104,551
2020-03-06T02:55:42,42.805,6.029,CST-1368DR,6668,9346,15218,0.103,551
2020-03-06T02:58:44,42.805,6.029,CST-1368DR,6668,9345,15216,0.104,551
2020-03-06T03:01:46,42.805,6.029,CST-1368DR,6668,9346,15217,0.104,551
2020-03-06T03:04:47,42.805,6.029,CST-1368DR,6668,9347,15220,0.103,551
2020-03-06T03:07:49,42.805,6.029,CST-1368DR,6668,9342,15211,0.105,550
2020-03-06T03:10:50,42.805,6.029,CST-1368DR,6668,9348,15221,0.102,551
2020-03-06T03:13:52,42.805,6.029,CST-1368DR,6668,9346,15217,0.104,551
2020-03-06T03:16:54,42.805,6.029,CST-1368DR,6668,9348,15220,0.103,551
2020-03-06T03:19:55,42.805,6.029,CST-1368DR,6668,9348,15220,0.103,551
2020-03-06T03:22:57,42.805,6.029,CST-1368DR,6668,9347,15219,0.103,551
2020-03-06T03:25:59,42.805,6.029,CST-1368DR,6668,9344,15215,0.104,551
2020-03-06T03:29:00,42.805,6.029,CST-1368DR,6668,9347,15219,0.103,551
2020-03-06T03:32:02,42.805,6.029,CST-1368DR,6668,9347,15219,0.103,551
2020-03-06T03:35:04,42.805,6.029,CST-1368DR,6668,9345,15216,0.104,551
2020-03-06T03:38:05,42.805,6.029,CST-1368DR,6668,9347,15219,0.103,551
2020-03-06T03:41:07,42.805,6.029,CST-1368DR,6668,9346,15217,0.104,551
2020-03-06T03:44:09,42.805,6.029,CST-1368DR,6668,9346,15218,0.103,551
2020-03-06T03:47:10,42.805,6.029,CST-1368DR,6668,9349,15222,0.102,551
2020-03-06T03:50:12,42.805,6.029,CST-1368DR,6668,9348,15220,0.103,551
2020-03-06T03:53:14,42.805,6.029,CST-1368DR,6667,9347,15221,0.102,551
2020-03-06T03:56:15,42.805,6.029,CST-1368DR,6667,9342,15212,0.105,551
2020-03-06T03:59:17,42.805,6.029,CST-1368DR,6667,9348,15222,0.102,551
2020-03-06T04:02:19,42.805,6.029,CST-1368DR,6668,9345,15215,0.104,551
2020-03-06T04:05:20,42.805,6.029,CST-1368DR,6668,9347,15219,0.103,550
2020-03-06T04:08:22,42.805,6.029,CST-1368DR,6668,9344,15215,0.104,551
2020-03-06T04:11:24,42.805,6.029,CST-1368DR,6668,9348,15220,0.103,551
2020-03-06T04:14:25,42.805,6.029,CST-1368DR,6668,9347,15220,0.103,551
2020-03-06T04:17:27,42.805,6.029,CST-1368DR,6667,9346,15220,0.103,551
2020-03-06T04:20:29,42.805,6.029,CST-1368DR,6668,9345,15216,0.104,550
2020-03-06T04:23:30,42.805,6.029,CST-1368DR,6667,9347,15222,0.102,551
2020-03-06T04:26:32,42.805,6.029,CST-1368DR,6668,9346,15218,0.103,551
2020-03-06T04:29:33,42.805,6.029,CST-1368DR,6668,9346,15218,0.103,551
2020-03-06T04:32:35,42.805,6.029,CST-1368DR,6667,9348,15223,0.102,551
2020-03-06T04:35:37,42.805,6.029,CST-1368DR,6668,9347,15218,0.103,551
2020-03-06T04:38:38,42.805,6.029,CST-1368DR,6668,9347,15220,0.103,551
2020-03-06T04:41:40,42.805,6.029,CST-1368DR,6668,9346,15217,0.104,551
2020-03-06T04:44:42,42.805,6.029,CST-1368DR,6668,9347,15219,0.103,551
2020-03-06T04:47:43,42.805,6.029,CST-1368DR,6668,9342,15211,0.105,551
2020-03-06T04:50:45,42.805,6.029,CST-1368DR,6668,9344,15215,0.104,551
2020-03-06T04:53:47,42.805,6.029,CST-1368DR,6667,9346,15219,0.103,551
2020-03-06T04:56:48,42.805,6.029,CST-1368DR,6667,9347,15221,0.102,550
2020-03-06T04:59:50,42.805,6.029,CST-1368DR,6668,9342,15210,0.105,551
2020-03-06T05:02:52,42.805,6.029,CST-1368DR,6668,9346,15218,0.103,551
2020-03-06T05:05:53,42.805,6.029,CST-1368DR,6668,9345,15215,0.104,551
2020-03-06T05:08:55,42.805,6.029,CST-1368DR,6668,9343,15213,0.105,551
2020-03-06T05:11:57,42.805,6.029,CST-1368DR,6668,9345,15216,0.104,551
2020-03-06T05:14:58,42.805,6.029,CST-1368DR,6668,9344,15214,0.104,551
2020-03-06T05:18:00,42.805,6.029,CST-1368DR,6668,9342,15211,0.105,551
2020-03-06T05:21:01,42.805,6.029,CST-1368DR,6668,9347,15219,0.103,551
2020-03-06T05:24:03,42.805,6.029,CST-1368DR,6668,9345,15215,0.104,551
2020-03-06T05:27:05,42.805,6.029,CST-1368DR,6668,9344,15215,0.104,551
2020-03-06T05:30:06,42.805,6.029,CST-1368DR,6668,9346,15217,0.104,551
2020-03-06T05:33:08,42.805,6.029,CST-1368DR,6668,9345,15216,0.104,551
2020-03-06T05:36:10,42.805,6.029,CST-1368DR,6668,9345,15216,0.104,551
2020-03-06T05:39:11,42.805,6.029,CST-1368DR,6668,9345,15215,0.104,551
2020-03-06T05:42:13,42.805,6.029,CST-1368DR,6668,9347,15220,0.103,551
2020-03-06T05:45:15,42.805,6.029,CST-1368DR,6667,9344,15216,0.104,551
2020-03-06T05:48:16,42.805,6.029,CST-1368DR,6667,9345,15218,0.103,551
2020-03-06T05:51:18,42.805,6.029,CST-1368DR,6667,9343,15215,0.104,551
2020-03-06T05:54:20,42.805,6.029,CST-1368DR,6667,9346,15219,0.103,551
2020-03-06T05:57:21,42.805,6.029,CST-1368DR,6667,9345,15218,0.103,551
2020-03-06T06:00:23,42.805,6.029,CST-1368DR,6668,9344,15214,0.104,551
2020-03-06T06:03:25,42.805,6.029,CST-1368DR,6667,9346,15219,0.103,551
2020-03-06T06:06:26,42.805,6.029,CST-1368DR,6667,9344,15216,0.104,551
2020-03-06T06:09:28,42.805,6.029,CST-1368DR,6667,9346,15219,0.103,550
2020-03-06T06:12:29,42.805,6.029,CST-1368DR,6667,9344,15216,0.104,550
2020-03-06T06:15:31,42.805,6.029,CST-1368DR,6667,9345,15217,0.104,551
2020-03-06T06:18:33,42.805,6.029,CST-1368DR,6667,9345,15218,0.103,551
2020-03-06T06:21:34,42.805,6.029,CST-1368DR,6667,9344,15216,0.104,551
2020-03-06T06:24:36,42.805,6.029,CST-1368DR,6667,9346,15219,0.103,551
2020-03-06T06:27:38,42.805,6.029,CST-1368DR,6667,9346,15219,0.103,551
2020-03-06T06:30:40,42.805,6.029,CST-1368DR,6667,9345,15219,0.103,550
2020-03-06T06:33:41,42.805,6.029,CST-1368DR,6667,9345,15219,0.103,551
2020-03-06T06:36:43,42.805,6.029,CST-1368DR,6667,9345,15219,0.103,551
2020-03-06T06:39:44,42.805,6.029,CST-1368DR,6667,9345,15219,0.103,551
2020-03-06T06:42:46,42.805,6.029,CST-1368DR,6667,9346,15220,0.103,551
2020-03-06T06:45:48,42.805,6.029,CST-1368DR,6667,9345,15217,0.104,551
2020-03-06T06:48:49,42.805,6.029,CST-1368DR,6667,9342,15214,0.104,551
2020-03-06T06:51:51,42.805,6.029,CST-1368DR,6667,9342,15213,0.105,551
2020-03-06T06:54:53,42.805,6.029,CST-1368DR,6667,9344,15216,0.104,551
2020-03-06T06:57:54,42.805,6.029,CST-1368DR,6667,9341,15212,0.105,551
2020-03-06T07:00:56,42.805,6.029,CST-1368DR,6667,9344,15216,0.104,550
2020-03-06T07:03:58,42.805,6.029,CST-1368DR,6667,9344,15216,0.104,551
2020-03-06T07:06:59,42.805,6.029,CST-1368DR,6667,9344,15216,0.104,551
2020-03-06T07:10:01,42.805,6.029,CST-1368DR,6667,9344,15216,0.104,551
2020-03-06T07:13:03,42.805,6.029,CST-1368DR,6667,9343,15214,0.104,551
2020-03-06T07:16:04,42.805,6.029,CST-1368DR,6667,9345,15218,0.103,551
2020-03-06T07:19:06,42.805,6.029,CST-1368DR,6667,9344,15217,0.104,551
2020-03-06T07:22:08,42.805,6.029,CST-1368DR,6667,9344,15217,0.104,551
2020-03-06T07:25:09,42.805,6.029,CST-1368DR,6667,9345,15217,0.104,551
2020-03-06T07:28:11,42.805,6.029,CST-1368DR,6667,9344,15216,0.104,551
2020-03-06T07:31:13,42.805,6.029,CST-1368DR,6667,9343,15215,0.104,550
2020-03-06T07:34:14,42.805,6.029,CST-1368DR,6667,9344,15216,0.104,551
2020-03-06T07:37:16,42.805,6.029,CST-1368DR,6667,9331,15195,0.109,550
2020-03-06T07:40:18,42.805,6.029,CST-1368DR,6667,9340,15209,0.106,551
2020-03-06T07:43:19,42.805,6.029,CST-1368DR,6667,9342,15213,0.105,551
2020-03-06T07:46:21,42.805,6.029,CST-1368DR,6667,9344,15216,0.104,551
2020-03-06T07:49:23,42.805,6.029,CST-1368DR,6667,9344,15216,0.104,551
2020-03-06T07:52:24,42.805,6.029,CST-1368DR,6667,9342,15214,0.104,551
2020-03-06T08:00:07,42.805,6.029,CST-1368DR,6667,9342,15214,0.104,551
2020-03-06T08:03:08,42.805,6.029,CST-1368DR,6667,9338,15206,0.106,551
2020-03-06T08:06:10,42.805,6.029,CST-1368DR,6667,9341,15212,0.105,551
2020-03-06T08:09:12,42.805,6.029,CST-1368DR,6667,9340,15210,0.105,551
2020-03-06T08:12:13,42.805,6.029,CST-1368DR,6667,9344,15216,0.104,551
2020-03-06T08:15:15,42.805,6.029,CST-1368DR,6667,9343,15215,0.104,551
2020-03-06T08:18:17,42.805,6.029,CST-1368DR,6667,9344,15216,0.104,551
2020-03-06T08:21:18,42.805,6.029,CST-1368DR,6667,9344,15216,0.104,551
2020-03-06T08:24:20,42.805,6.029,CST-1368DR,6667,9342,15214,0.104,551
2020-03-06T08:27:22,42.805,6.029,CST-1368DR,6667,9343,15214,0.104,551
2020-03-06T08:30:23,42.805,6.029,CST-1368DR,6667,9343,15215,0.104,550
2020-03-06T08:33:25,42.805,6.029,CST-1368DR,6667,9343,15214,0.104,550
2020-03-06T08:36:27,42.805,6.029,CST-1368DR,6667,9344,15216,0.104,551
2020-03-06T08:39:28,42.805,6.029,CST-1368DR,6667,9342,15214,0.104,551
2020-03-06T08:42:30,42.805,6.029,CST-1368DR,6667,9343,15215,0.104,550
2020-03-06T08:45:31,42.805,6.029,CST-1368DR,6667,9342,15214,0.104,551
2020-03-06T08:48:33,42.805,6.029,CST-1368DR,6667,9344,15216,0.104,551
2020-03-06T08:51:35,42.805,6.029,CST-1368DR,6667,9344,15216,0.104,551
2020-03-06T08:54:36,42.805,6.029,CST-1368DR,6667,9344,15216,0.104,551
2020-03-06T08:57:38,42.805,6.029,CST-1368DR,6667,9343,15215,0.104,551
2020-03-06T09:00:40,42.805,6.029,CST-1368DR,6667,9345,15218,0.103,551
2020-03-06T09:03:41,42.805,6.029,CST-1368DR,6667,9344,15216,0.104,551
2020-03-06T09:06:43,42.805,6.029,CST-1368DR,6667,9344,15216,0.104,551
2020-03-06T09:09:45,42.805,6.029,CST-1368DR,6667,9343,15214,0.104,551
2020-03-06T09:12:46,42.805,6.029,CST-1368DR,6667,9344,15216,0.104,550
2020-03-06T09:15:48,42.805,6.029,CST-1368DR,6667,9342,15214,0.104,551
2020-03-06T09:18:50,42.805,6.029,CST-1368DR,6667,9344,15216,0.104,551
2020-03-06T09:21:51,42.805,6.029,CST-1368DR,6667,9343,15215,0.104,551
2020-03-06T09:24:53,42.805,6.029,CST-1368DR,6667,9339,15209,0.106,551
2020-03-06T09:27:55,42.805,6.029,CST-1368DR,6667,9343,15215,0.104,551
2020-03-06T09:30:56,42.805,6.029,CST-1368DR,6667,9341,15212,0.105,551
2020-03-06T09:33:58,42.805,6.029,CST-1368DR,6667,9344,15216,0.104,551
2020-03-06T09:37:00,42.805,6.029,CST-1368DR,6667,9342,15213,0.105,551
2020-03-06T09:40:01,42.805,6.029,CST-1368DR,6667,9343,15215,0.104,551
2020-03-06T09:43:03,42.805,6.029,CST-1368DR,6667,9340,15209,0.106,551
2020-03-06T09:46:04,42.805,6.029,CST-1368DR,6667,9343,15214,0.104,551
2020-03-06T09:49:06,42.805,6.029,CST-1368DR,6667,9342,15213,0.105,551
2020-03-06T09:52:08,42.805,6.029,CST-1368DR,6667,9343,15214,0.104,550
2020-03-06T09:55:09,42.805,6.029,CST-1368DR,6667,9343,15214,0.104,551
2020-03-06T09:58:11,42.805,6.029,CST-1368DR,6667,9342,15214,0.104,551
2020-03-06T10:01:13,42.805,6.029,CST-1368DR,6667,9343,15214,0.104,550
2020-03-06T10:04:14,42.805,6.029,CST-1368DR,6667,9342,15214,0.104,551
2020-03-06T10:07:16,42.805,6.029,CST-1368DR,6667,9344,15216,0.104,551
2020-03-06T10:10:18,42.805,6.029,CST-1368DR,6667,9341,15212,0.105,551
2020-03-06T10:13:20,42.805,6.029,CST-1368DR,6667,9343,15215,0.104,551
2020-03-06T10:16:21,42.805,6.029,CST-1368DR,6667,9344,15216,0.104,551
2020-03-06T10:19:23,42.805,6.029,CST-1368DR,6667,9344,15216,0.104,551
2020-03-06T10:22:25,42.805,6.029,CST-1368DR,6667,9344,15216,0.104,551
2020-03-06T10:25:26,42.805,6.029,CST-1368DR,6667,9344,15216,0.104,551
2020-03-06T10:28:28,42.805,6.029,CST-1368DR,6667,9341,15211,0.105,551
2020-03-06T10:31:29,42.805,6.029,CST-1368DR,6667,9343,15214,0.104,551
2020-03-06T10:34:31,42.805,6.029,CST-1368DR,6667,9344,15216,0.104,551
2020-03-06T10:37:33,42.805,6.029,CST-1368DR,6667,9344,15216,0.104,551
2020-03-06T10:40:34,42.805,6.029,CST-1368DR,6667,9344,15217,0.104,551
2020-03-06T10:43:36,42.805,6.029,CST-1368DR,6667,9343,15215,0.104,551
2020-03-06T10:46:38,42.805,6.029,CST-1368DR,6667,9344,15216,0.104,551
2020-03-06T10:49:39,42.805,6.029,CST-1368DR,6667,9344,15216,0.104,551
2020-03-06T10:52:41,42.805,6.029,CST-1368DR,6667,9343,15214,0.104,551
2020-03-06T10:55:43,42.805,6.029,CST-1368DR,6667,9341,15211,0.105,551
2020-03-06T10:58:44,42.805,6.029,CST-1368DR,6667,9343,15215,0.104,551
2020-03-06T11:01:46,42.805,6.029,CST-1368DR,6666,9342,15215,0.104,551
2020-03-06T11:04:48,42.805,6.029,CST-1368DR,6667,9343,15215,0.104,551
2020-03-06T11:07:49,42.805,6.029,CST-1368DR,6666,9344,15218,0.103,551
2020-03-06T11:10:51,42.805,6.029,CST-1368DR,6666,9344,15218,0.103,551
2020-03-06T11:13:52,42.805,6.029,CST-1368DR,6666,9343,15217,0.104,551
2020-03-06T11:16:54,42.805,6.029,CST-1368DR,6666,9340,15212,0.105,551
2020-03-06T11:19:56,42.805,6.029,CST-1368DR,6666,9343,15217,0.104,551
2020-03-06T11:22:57,42.805,6.029,CST-1368DR,6666,9343,15217,0.104,551
2020-03-06T11:25:59,42.805,6.029,CST-1368DR,6666,9343,15217,0.104,551
2020-03-06T11:29:01,42.805,6.029,CST-1368DR,6666,9343,15217,0.104,551
2020-03-06T11:32:02,42.805,6.029,CST-1368DR,6666,9343,15216,0.104,551
2020-03-06T11:35:04,42.805,6.029,CST-1368DR,6666,9342,15215,0.104,551
2020-03-06T11:38:06,42.805,6.029,CST-1368DR,6666,9339,15210,0.105,551
2020-03-06T11:41:07,42.805,6.029,CST-1368DR,6666,9342,15216,0.104,551
2020-03-06T11:44:09,42.805,6.029,CST-1368DR,6666,9343,15216,0.104,551
2020-03-06T11:47:11,42.805,6.029,CST-1368DR,6666,9342,15216,0.104,551
2020-03-06T11:50:12,42.805,6.029,CST-1368DR,6666,9343,15216,0.104,551
2020-03-06T11:53:14,42.805,6.029,CST-1368DR,6666,9343,15217,0.104,551
2020-03-06T11:56:16,42.805,6.029,CST-1368DR,6666,9343,15217,0.104,551
2020-03-06T11:59:17,42.805,6.029,CST-1368DR,6666,9340,15213,0.105,551
2020-03-06T12:02:19,42.805,6.029,CST-1368DR,6666,9341,15214,0.104,551
2020-03-06T12:05:21,42.805,6.029,CST-1368DR,6666,9343,15217,0.104,551
2020-03-06T12:08:22,42.805,6.029,CST-1368DR,6666,9342,15215,0.104,550
2020-03-06T12:11:24,42.805,6.029,CST-1368DR,6666,9343,15217,0.104,551
2020-03-06T12:14:26,42.805,6.029,CST-1368DR,6666,9342,15216,0.104,551
2020-03-06T12:17:27,42.805,6.029,CST-1368DR,6666,9343,15216,0.104,551
2020-03-06T12:20:29,42.805,6.029,CST-1368DR,6666,9343,15217,0.104,551
2020-03-06T12:23:31,42.805,6.029,CST-1368DR,6666,9343,15217,0.104,551
2020-03-06T12:26:32,42.805,6.029,CST-1368DR,6666,9343,15217,0.104,551
2020-03-06T12:29:34,42.805,6.029,CST-1368DR,6666,9342,15215,0.104,551
2020-03-06T12:32:36,42.805,6.029,CST-1368DR,6666,9341,15213,0.105,550
2020-03-06T12:35:37,42.805,6.029,CST-1368DR,6666,9342,15215,0.104,551
2020-03-06T12:38:39,42.805,6.029,CST-1368DR,6666,9340,15212,0.105,551
2020-03-06T12:41:40,42.805,6.029,CST-1368DR,6666,9340,15213,0.105,551
2020-03-06T12:44:42,42.805,6.029,CST-1368DR,6666,9341,15214,0.104,551
2020-03-06T12:47:44,42.805,6.029,CST-1368DR,6666,9340,15213,0.105,551
2020-03-06T12:50:45,42.805,6.029,CST-1368DR,6666,9342,15216,0.104,551
2020-03-06T12:53:47,42.805,6.029,CST-1368DR,6666,9342,15215,0.104,551
2020-03-06T12:56:49,42.805,6.029,CST-1368DR,6666,9342,15215,0.104,551
2020-03-06T12:59:51,42.805,6.029,CST-1368DR,6666,9342,15215,0.104,551
2020-03-06T13:02:52,42.805,6.029,CST-1368DR,6666,9339,15211,0.105,551
2020-03-06T13:05:54,42.805,6.029,CST-1368DR,6666,9336,15205,0.107,551
2020-03-06T13:08:55,42.805,6.029,CST-1368DR,6666,9342,15215,0.104,551
2020-03-06T13:11:57,42.805,6.029,CST-1368DR,6666,9341,15213,0.105,551
2020-03-06T13:14:59,42.805,6.029,CST-1368DR,6666,9342,15215,0.104,551
2020-03-06T13:18:00,42.805,6.029,CST-1368DR,6666,9343,15216,0.104,551
2020-03-06T13:21:02,42.805,6.029,CST-1368DR,6666,9343,15217,0.104,551
2020-03-06T13:24:04,42.805,6.029,CST-1368DR,6666,9342,15215,0.104,551
2020-03-06T13:27:05,42.805,6.029,CST-1368DR,6666,9342,15216,0.104,550
2020-03-06T13:30:07,42.805,6.029,CST-1368DR,6666,9341,15214,0.104,551
2020-03-06T13:33:09,42.805,6.029,CST-1368DR,6666,9338,15208,0.106,551
2020-03-06T13:36:10,42.805,6.029,CST-1368DR,6666,9337,15207,0.106,551
2020-03-06T13:39:12,42.805,6.029,CST-1368DR,6666,9339,15211,0.105,551
2020-03-06T13:42:14,42.805,6.029,CST-1368DR,6666,9341,15214,0.104,551
2020-03-06T13:45:15,42.805,6.029,CST-1368DR,6666,9343,15216,0.104,551
2020-03-06T13:48:17,42.805,6.029,CST-1368DR,6666,9337,15207,0.106,551
2020-03-06T13:51:19,42.805,6.029,CST-1368DR,6666,9342,15216,0.104,551
2020-03-06T13:54:20,42.805,6.029,CST-1368DR,6666,9342,15215,0.104,551
2020-03-06T13:57:22,42.805,6.029,CST-1368DR,6666,9342,15215,0.104,551
2020-03-06T14:00:24,42.805,6.029,CST-1368DR,6666,9342,15215,0.104,551
2020-03-06T14:03:25,42.805,6.029,CST-1368DR,6666,9341,15213,0.105,551
2020-03-06T14:06:27,42.805,6.029,CST-1368DR,6666,9342,15215,0.104,550
2020-03-06T14:09:29,42.805,6.029,CST-1368DR,6666,9343,15216,0.104,551
2020-03-06T14:12:30,42.805,6.029,CST-1368DR,6666,9336,15205,0.107,551
2020-03-06T14:15:32,42.805,6.029,CST-1368DR,6666,9343,15217,0.104,551
2020-03-06T14:18:34,42.805,6.029,CST-1368DR,6666,9342,15215,0.104,551
2020-03-06T14:21:35,42.805,6.029,CST-1368DR,6666,9342,15215,0.104,551
2020-03-06T14:24:37,42.805,6.029,CST-1368DR,6666,9340,15213,0.105,551
2020-03-06T14:27:39,42.805,6.029,CST-1368DR,6666,9342,15216,0.104,551
2020-03-06T14:30:40,42.805,6.029,CST-1368DR,6666,9342,15215,0.104,551
2020-03-06T14:33:42,42.805,6.029,CST-1368DR,6666,9337,15208,0.106,551
2020-03-06T14:36:43,42.805,6.029,CST-1368DR,6666,9342,15215,0.104,551
2020-03-06T14:39:45,42.805,6.029,CST-1368DR,6666,9342,15215,0.104,551
2020-03-06T14:42:47,42.805,6.029,CST-1368DR,6666,9336,15206,0.106,551
2020-03-06T14:45:48,42.805,6.029,CST-1368DR,6666,9342,15215,0.104,551
2020-03-06T14:48:50,42.805,6.029,CST-1368DR,6666,9343,15217,0.104,551
2020-03-06T14:51:52,42.805,6.029,CST-1368DR,6666,9342,15215,0.104,551
2020-03-06T14:54:53,42.805,6.029,CST-1368DR,6665,9337,15209,0.106,551
2020-03-06T14:57:55,42.805,6.029,CST-1368DR,6665,9341,15216,0.104,551
2020-03-06T15:00:57,42.805,6.029,CST-1368DR,6665,9338,15210,0.105,550
2020-03-06T15:03:58,42.805,6.029,CST-1368DR,6665,9342,15217,0.104,551
2020-03-06T15:07:00,42.805,6.029,CST-1368DR,6665,9342,15217,0.104,551
2020-03-06T15:10:02,42.805,6.029,CST-1368DR,6665,9340,15214,0.104,551
2020-03-06T15:13:03,42.805,6.029,CST-1368DR,6665,9342,15217,0.104,551
2020-03-06T15:16:05,42.805,6.029,CST-1368DR,6665,9339,15213,0.105,551
2020-03-06T15:19:07,42.805,6.029,CST-1368DR,6665,9340,15215,0.104,551
2020-03-06T15:22:08,42.805,6.029,CST-1368DR,6665,9340,15214,0.104,550
2020-03-06T15:25:10,42.805,6.029,CST-1368DR,6665,9341,15215,0.104,551
2020-03-06T15:28:11,42.805,6.029,CST-1368DR,6665,9341,15216,0.104,551
2020-03-06T15:31:13,42.805,6.029,CST-1368DR,6665,9339,15212,0.105,551
2020-03-06T15:34:15,42.805,6.029,CST-1368DR,6665,9340,15213,0.105,551
2020-03-06T15:37:17,42.805,6.029,CST-1368DR,6665,9340,15213,0.105,551
2020-03-06T15:40:18,42.805,6.029,CST-1368DR,6665,9340,15215,0.104,551
2020-03-06T15:43:20,42.805,6.029,CST-1368DR,6665,9338,15211,0.105,551
2020-03-06T15:46:22,42.805,6.029,CST-1368DR,6665,9342,15217,0.104,551
2020-03-06T15:49:23,42.805,6.029,CST-1368DR,6665,9343,15218,0.103,551
2020-03-06T15:52:25,42.805,6.029,CST-1368DR,6665,9343,15218,0.103,551
2020-03-06T15:55:26,42.805,6.029,CST-1368DR,6665,9342,15218,0.103,551
2020-03-06T15:58:28,42.805,6.029,CST-1368DR,6665,9342,15217,0.104,551
2020-03-06T16:01:30,42.805,6.029,CST-1368DR,6665,9342,15218,0.103,551
2020-03-06T16:04:31,42.805,6.029,CST-1368DR,6665,9340,15214,0.104,551
2020-03-06T16:07:33,42.805,6.029,CST-1368DR,6665,9338,15211,0.105,551
2020-03-06T16:10:35,42.805,6.029,CST-1368DR,6665,9341,15216,0.104,551
2020-03-06T16:13:36,42.805,6.029,CST-1368DR,6665,9343,15220,0.103,551
2020-03-06T16:16:38,42.805,6.029,CST-1368DR,6665,9342,15217,0.104,551
2020-03-06T16:19:40,42.805,6.029,CST-1368DR,6665,9343,15219,0.103,551
2020-03-06T16:22:41,42.805,6.029,CST-1368DR,6665,9342,15217,0.104,551
2020-03-06T16:25:43,42.805,6.029,CST-1368DR,6665,9342,15217,0.104,551
2020-03-06T16:28:44,42.805,6.029,CST-1368DR,6665,9341,15215,0.104,551
2020-03-06T16:31:46,42.805,6.029,CST-1368DR,6665,9342,15217,0.104,551
2020-03-06T16:34:48,42.805,6.029,CST-1368DR,6665,9341,15215,0.104,551
2020-03-06T16:37:49,42.805,6.029,CST-1368DR,6665,9342,15218,0.103,551
2020-03-06T16:40:51,42.805,6.029,CST-1368DR,6665,9340,15213,0.105,551
2020-03-06T16:43:53,42.805,6.029,CST-1368DR,6665,9341,15215,0.104,551
2020-03-06T16:46:54,42.805,6.029,CST-1368DR,6665,9342,15218,0.103,551
2020-03-06T16:49:56,42.805,6.029,CST-1368DR,6665,9340,15214,0.104,551
2020-03-06T16:52:58,42.805,6.029,CST-1368DR,6665,9341,15215,0.104,551
2020-03-06T16:55:59,42.805,6.029,CST-1368DR,6665,9341,15215,0.104,551